This is the latest recevied weather packets stored in our database for station/object K3HW. If no packets are shown the sender has not sent any weather packets the latest 10 day(s).
| Time | Temp. | Humidity | Pressure | Rain* | Wind** | Luminosity | Snow |
|---|---|---|---|---|---|---|---|
| 1777864474 | 7.22° C | 64% | 1017 hPa | 0 mm | - | 0 W/m² | - |
| 1777847503 | 16.11° C | 34% | 1015.6 hPa | 0 mm | - | 27 W/m² | - |
| 1777845384 | 16.67° C | 32% | 1015.6 hPa | 0 mm | - | 183 W/m² | - |
| 1777845080 | 16.67° C | 31% | 1015.4 hPa | 0 mm | - | 174 W/m² | - |
| 1777844475 | 16.67° C | 31% | 1015.2 hPa | 0 mm | - | 231 W/m² | - |
| 1777844174 | 16.11° C | 31% | 1015.4 hPa | 0 mm | - | 245 W/m² | - |
| 1777843568 | 16.67° C | 30% | 1015.4 hPa | 0 mm | - | 278 W/m² | - |
| 1777843265 | 16.11° C | 32% | 1015.5 hPa | 0 mm | - | 205 W/m² | - |
| 1777842657 | 16.11° C | 31% | 1015.5 hPa | 0 mm | - | 107 W/m² | - |
| 1777842354 | 15.56° C | 33% | 1015.5 hPa | 0 mm | - | 168 W/m² | - |
| 1777842054 | 15.56° C | 32% | 1015.5 hPa | 0 mm | - | 169 W/m² | - |
| 1777841747 | 15.56° C | 32% | 1015.4 hPa | 0 mm | - | 113 W/m² | - |
| 1777840535 | 15.56° C | 33% | 1015.8 hPa | 0 mm | - | 86 W/m² | - |
| 1777840232 | 15.56° C | 35% | 1015.6 hPa | 0 mm | - | 78 W/m² | - |
| 1777839929 | 15.56° C | 35% | 1015.6 hPa | 0 mm | - | 56 W/m² | - |
| 1777839627 | 15° C | 35% | 1016 hPa | 0 mm | - | 128 W/m² | - |
| 1777839325 | 15.56° C | 34% | 1015.8 hPa | 0 mm | - | 51 W/m² | - |
| 1777838113 | 15.56° C | 35% | 1016 hPa | 0 mm | - | 68 W/m² | - |
| 1777834779 | 14.44° C | 36% | 1016.3 hPa | 0 mm | - | 260 W/m² | - |
| 1777834174 | 13.89° C | 36% | 1016.5 hPa | 0 mm | - | 74 W/m² | - |
| 1777827505 | 12.78° C | 38% | 1017 hPa | 0 mm | - | 412 W/m² | - |
| 1777827204 | 12.22° C | 39% | 1017 hPa | 0 mm | - | 254 W/m² | - |
| 1777825082 | 11.67° C | 41% | 1017.4 hPa | 0 mm | - | 871 W/m² | - |
| 1777824475 | 12.22° C | 40% | 1017.4 hPa | 0 mm | - | 769 W/m² | - |
| 1777822052 | 11.11° C | 46% | 1017.5 hPa | 0 mm | - | 168 W/m² | - |
* Rain latest hour (hover to see other rain measurements)
** Current wind speed in m/s (hover to see current wind gust speed)